Flag for Germany Weather past 2 weeks in Forchheim, Bavaria, Germany

Now
55 °F

Clear.


Feels Like: 55 °F
Forecast: 56 / 84 °F
Wind: 1 mph from East

Location: Bamberg

Current Time: Jul 25, 2014 at 4:14:53 AM

Latest Report: Jul 25, 2014 at 3:00 AM


Visibility: 6 mi

Pressure: 29.95 "Hg

Humidity: 97%

Dew point: 54 °F

Location of ForchheimLocation

Historic Weather in Forchheim — Graph

°F

Forchheim temperature yesterday

Maximum temperature yesterday: 80 °F (at 2:00 PM)
Minimum temperature yesterday: 55 °F (at 5:00 AM)
Average temperature yesterday: 69 °F

Past Weeks' High & Low Weather Summary

 TemperatureHumidityPressure
High90 °F (Jul 19, 4:00 PM)100% (Jul 12, 2:00 AM)30.19 "Hg (Jul 12, 2:00 AM)
Low52 °F (Jul 17, 6:00 AM)26% (Jul 20, 4:00 PM)29.76 "Hg (Jul 20, 5:00 PM)
Average67 °F77%29.94 "Hg
* Reported Jul 10 3:00 AM — Jul 25 3:00 AM, Forchheim, Weather by CustomWeather, © 2014

Note: Actual official high and low records may vary slightly from our data, if they occured in-between our weather recording intervals... More about our weather records

Advertising

Forchheim weather history for previous 24 hours

 ConditionsComfort  
Time TempWeatherWind HumidityBarometerVisibility
3:00 AM
Jul 25
55 °FClear.1 mph97%29.95 "Hg6 mi
2:00 AM57 °FClear.1 mph96%29.95 "Hg11 mi
1:00 AM58 °FClear.1 mph93%29.95 "Hg10 mi
12:00 AM63 °FClear.2 mph79%29.93 "Hg18 mi
11:00 PM
Jul 24
66 °FClear.3 mph70%29.93 "Hg22 mi
10:00 PM68 °FClear.3 mph63%29.92 "Hg25 mi
9:00 PM71 °FSunny.3 mph55%29.90 "Hg28 mi
8:00 PM74 °FSunny.6 mph51%29.88 "Hg28 mi
7:00 PM76 °FSunny.5 mph47%29.86 "Hg37 mi
6:00 PM78 °FPassing clouds.6 mph46%29.86 "Hg16 mi
5:00 PM78 °FPartly sunny.5 mph39%29.86 "Hg25 mi
4:00 PM80 °FScattered clouds.5 mph33%29.87 "Hg25 mi
3:00 PM80 °FPartly sunny.5 mph37%29.88 "Hg22 mi
2:00 PM80 °FPassing clouds.3 mph34%29.88 "Hg17 mi
1:00 PM78 °FScattered clouds.5 mph41%29.90 "Hg19 mi
12:00 PM76 °FScattered clouds.6 mph43%29.90 "Hg25 mi
11:00 AM75 °FSunny.3 mph49%29.91 "Hg22 mi
10:00 AM72 °FSunny.2 mph54%29.91 "Hg19 mi
9:00 AM70 °FSunny.2 mph60%29.92 "Hg25 mi
8:00 AM66 °FSunny.3 mph65%29.94 "Hg17 mi
7:00 AM62 °FPassing clouds.3 mph77%29.93 "Hg17 mi
6:00 AM56 °FPassing clouds.2 mph92%29.93 "Hg13 mi
5:00 AM55 °FPassing clouds.1 mph97%29.94 "Hg9 mi
4:00 AM58 °FClear.2 mph85%29.94 "Hg15 mi
Weather by CustomWeather, © 2014

See weather overviewHow to use our weather pages